SCP
0 0 0 0 0 0 0 0 0 0 0 0 0 0 0 0 0 1 1 1 1 1 1 1 1 1 1 0 0 0 0 0 0 0 1 1 1 1 1 1 1 1 1
0 0 0 0 0 0 0 0 0 0 0 0 0 0 0 0 0 1 1 1 1 1 1 1 1 1 1 0 0 0 0 0 0 0 0 1 1 1 1 1 1 1 1
0 0 0 0 0 0 0 0 0 0 0 0 0 0 0 0 0 1 1 1 1 1 1 1 1 1 1 1 1 0 0 0 0 0 1 1 1 0 1 1 1 1 1
0 0 0 0 0 0 0 0 0 0 0 0 0 0 0 0 0 0 0 0 1 1 1 1 1 1 1 1 1 1 0 0 0 0 1 1 1 1 1 1 1 1 1
0 0 0 0 0 0 0 0 0 0 0 0 0 0 0 0 0 0 0 0 0 0 1 1 1 1 1 1 1 1 1 0 0 0 1 1 1 1 1 1 1 1 1
0 0 0 0 0 0 0 0 0 0 0 0 0 0 0 0 0 0 0 0 0 0 0 1 1 1 1 1 1 1 1 0 0 0 0 1 1 1 1 1 1 1 1
0 0 0 0 0 0 0 0 0 0 0 0 0 0 0 0 0 0 0 0 0 0 0 0 0 0 0 0 1 1 1 0 0 0 0 1 1 1 1 1 1 1 1
0 0 0 0 0 0 0 0 0 0 0 0 0 0 0 0 0 0 0 0 0 0 0 0 0 0 0 0 0 0 0 0 0 0 0 0 1 1 1 1 1 1 1
0 0 0 0 0 0 0 0 0 0 0 0 0 0 0 0 0 0 0 0 0 0 0 0 0 0 0 0 0 0 0 0 0 0 0 1 1 1 1 1 1 1 1
0 0 0 0 0 0 0 0 0 0 0 0 0 0 0 0 0 0 0 0 0 0 0 0 0 0 0 0 0 0 0 0 0 1 1 1 1 1 1 1 1 1 1
0 0 0 0 0 0 0 0 0 0 0 0 0 0 0 0 0 0 0 0 0 0 0 0 0 0 0 0 0 0 0 0 0 1 1 1 1 1 1 1 1 1 1
0 0 0 0 0 0 0 0 0 0 0 0 0 0 0 0 0 0 0 0 0 0 0 0 0 0 0 0 0 0 0 0 0 1 1 1 1 1 1 1 1 1 1
0 0 0 0 0 0 0 0 0 0 0 0 0 0 0 0 0 0 0 0 0 0 0 0 0 0 0 0 0 0 0 0 0 0 0 0 1 0 0 1 1 1 1
0 0 0 0 0 0 0 0 0 0 0 0 0 0 0 0 0 0 0 0 0 0 0 0 0 0 0 0 0 0 0 0 0 0 0 0 0 0 0 0 1 1 1
0 0 0 0 0 0 0 0 0 0 0 0 0 0 0 0 0 0 0 0 0 0 0 0 0 0 0 0 0 0 0 0 0 0 0 0 0 0 0 0 0 0 0
0 0 0 0 0 0 0 0 0 0 0 0 0 0 0 0 0 0 0 0 0 0 0 0 0 0 0 0 0 0 0 0 0 0 0 0 0 0 0 0 0 0 0
0 0 0 0 0 0 0 0 0 0 0 0 0 0 0 0 0 0 0 0 0 0 0 0 0 0 0 0 0 0 0 0 0 0 0 0 0 0 0 0 0 0 0
0 0 0 0 0 0 0 0 0 0 0 0 0 0 0 0 0 0 0 0 0 0 0 0 0 0 0 0 0 0 0 0 0 0 0 0 0 0 0 0 0 0 0
0 0 0 0 0 0 0 0 0 0 0 0 0 0 0 0 0 0 0 0 0 0 0 0 0 0 0 0 0 0 0 0 0 0 0 0 0 0 0 0 0 0 0
0 0 0 0 0 0 0 0 0 0 0 0 0 0 0 0 0 0 0 0 0 0 0 0 0 0 0 0 0 0 0 0 0 0 0 0 0 0 0 0 0 0 0
0 0 0 0 0 0 0 0 0 0 0 0 0 0 0 0 0 0 0 0 0 0 0 0 0 0 0 0 0 0 0 0 0 0 0 0 0 0 0 0 0 0 0
0 0 0 0 0 0 0 0 0 0 0 0 0 0 0 0 0 0 0 0 0 0 0 0 0 0 0 0 0 0 0 0 0 0 0 0 0 0 0 0 0 0 0
0 0 0 0 0 0 0 0 0 0 0 0 0 0 0 0 0 0 0 0 0 0 0 0 0 0 0 0 0 0 0 0 0 0 0 0 0 0 0 0 0 0 0
0 0 0 0 0 0 0 0 0 0 0 0 0 0 0 0 0 0 0 0 0 0 0 0 0 0 0 0 0 0 0 0 0 0 0 0 0 0 0 0 0 0 0
0 0 0 0 0 0 0 0 0 0 0 0 0 0 0 0 0 0 0 0 0 0 0 0 0 0 0 0 0 0 0 0 0 0 0 0 0 0 0 0 0 0 0
0 0 0 0 0 0 0 0 0 0 0 0 0 0 0 0 0 0 0 0 0 0 0 0 0 0 0 0 0 0 0 0 0 0 0 0 0 0 0 0 0 0 0
Wind_Speed
1 2 2 2 2 2 3 3 3 4 4 5 5 5 5 5 5 4 4 10 12 11 10 10 10 10 10 10 10 10 10 10 11 11 11 10 10 9 9 10 10 10 9
2 2 2 2 2 2 3 3 4 4 4 4 5 5 5 5 5 5 5 7 12 12 12 11 11 11 11 11 10 10 10 10 10 11 11 10 10 9 10 10 10 11 11
2 2 2 2 2 2 4 4 5 4 4 5 5 5 5 5 5 5 5 5 6 11 13 13 12 13 12 12 11 11 10 10 10 10 10 10 10 10 9 10 10 11 11
3 3 3 2 2 3 3 4 4 4 5 4 4 4 4 4 5 5 5 5 5 5 9 14 14 14 14 13 12 12 11 11 10 10 10 10 10 10 9 10 10 11 11
3 3 3 2 3 3 3 4 4 3 4 4 5 5 5 5 5 5 5 6 5 5 5 9 14 14 14 14 14 13 12 12 12 11 10 10 10 10 10 10 11 11 11
3 3 3 3 3 3 3 4 4 4 3 4 6 6 5 4 4 5 5 5 5 6 6 6 6 8 14 14 14 14 13 12 12 11 11 11 10 10 11 11 11 12 12
3 3 4 3 3 3 4 4 4 5 3 2 4 4 4 4 5 4 4 4 5 5 6 6 5 5 5 12 14 14 14 13 12 12 11 11 10 10 11 11 11 12 12
3 3 4 3 3 4 4 3 3 3 2 2 3 3 2 3 4 5 4 4 5 4 5 7 6 6 5 4 8 14 14 14 13 12 12 11 11 11 11 12 12 13 13
3 3 4 4 3 3 3 3 3 4 2 2 2 3 3 1 1 3 4 4 4 4 4 4 6 6 6 5 5 9 14 14 14 13 12 12 12 12 12 12 12 13 13
3 3 4 4 3 3 3 2 2 2 3 2 2 2 2 3 3 1 3 3 4 5 5 5 5 6 6 5 7 12 14 14 14 14 13 13 13 13 13 13 12 13 14
3 3 3 3 3 2 2 2 3 2 2 2 2 2 2 2 3 3 1 2 3 3 4 4 4 5 5 5 5 9 13 14 14 15 15 14 13 13 13 13 13 13 14
2 3 3 3 3 2 2 2 3 3 2 2 2 2 2 2 2 3 2 1 1 2 3 3 4 4 4 5 7 12 13 13 14 15 15 14 14 14 13 13 14 14 15
1 1 2 2 2 2 2 3 3 3 2 3 2 2 1 2 2 3 3 2 1 2 2 3 3 3 4 4 5 10 12 13 13 14 14 14 14 15 15 15 15 16 16
1 1 2 3 2 2 3 3 3 3 3 3 3 3 2 2 2 3 3 4 2 2 3 3 2 3 3 3 5 8 7 12 13 13 13 13 13 14 14 14 14 15 15
1 2 3 3 3 3 3 4 3 3 3 3 3 3 3 2 2 2 2 3 4 2 1 2 2 3 3 2 5 5 5 10 12 12 12 12 12 12 12 12 13 13 13
2 3 3 3 3 3 3 4 3 3 4 3 3 4 3 2 2 2 2 2 2 4 2 1 1 2 3 3 6 5 5 10 11 11 11 11 11 11 11 11 11 11 11
3 3 3 3 3 3 3 4 3 3 4 4 3 4 3 3 2 2 2 2 2 3 3 1 1 2 3 3 4 4 4 4 5 10 10 10 10 10 11 10 10 10 10
3 3 3 4 3 3 3 4 4 3 4 4 3 3 3 3 3 2 2 3 2 2 3 2 1 2 3 2 3 3 3 3 3 7 8 8 8 9 9 9 9 9 9
3 3 3 4 3 3 3 3 4 4 3 3 3 3 2 3 3 2 2 2 2 2 2 3 1 1 2 2 3 3 3 3 3 4 6 7 7 8 8 7 7 8 8
4 4 3 3 3 3 3 3 4 4 3 3 2 2 2 3 3 3 3 2 3 3 3 3 1 1 1 2 2 2 3 3 3 4 5 5 6 7 7 7 7 6 6
4 4 4 3 3 3 3 4 4 4 4 3 2 2 2 3 4 4 3 3 4 3 2 2 1 1 1 1 1 1 1 2 3 2 3 3 3 3 4 6 6 6 6
4 4 4 4 3 2 5 7 6 4 4 4 2 1 2 2 3 4 5 5 5 4 3 2 1 1 1 1 1 0 0 1 2 2 2 3 2 3 3 2 5 6 6
4 4 4 4 3 3 6 7 8 5 4 3 3 2 2 2 2 2 4 4 3 3 4 4 3 3 2 3 2 0 1 1 2 2 1 2 2 3 3 4 7 6 5
4 4 4 4 3 4 7 8 9 5 3 2 2 3 3 2 2 4 3 3 2 1 0 2 2 3 2 2 3 2 2 1 2 2 0 1 3 3 3 4 7 7 5
4 4 3 4 4 4 6 8 8 4 3 2 1 2 3 2 4 5 4 3 1 2 1 2 1 1 1 2 3 2 1 1 2 2 0 1 2 3 3 3 5 7 6
4 4 3 3 4 4 6 9 9 4 3 2 1 1 3 4 5 6 4 4 2 1 0 2 2 3 2 2 2 2 2 1 1 2 1 0 1 2 3 3 3 4 4
Wind_Direction
70 57 47 45 46 52 62 66 68 75 75 73 72 74 69 63 53 39 25 38 41 41 45 46 44 42 41 39 37 35 31 30 29 27 27 28 27 25 22 22 21 20 18
91 79 61 48 46 56 67 74 75 78 73 74 69 65 66 61 52 43 33 31 38 40 42 43 42 40 41 41 40 37 33 32 30 29 29 27 26 26 26 25 26 25 24
101 98 83 63 52 66 74 75 69 71 75 70 63 60 59 56 52 43 38 33 26 35 39 40 40 39 39 39 40 39 36 33 32 30 28 26 26 27 28 29 30 29 29
107 105 97 82 76 79 80 82 73 73 67 67 62 51 50 48 47 45 43 39 32 29 30 36 39 38 37 38 38 38 36 33 31 30 30 28 31 31 30 32 32 32 33
103 107 104 92 90 83 78 90 73 83 84 81 75 56 46 46 37 45 45 41 36 33 29 30 34 34 35 34 34 34 33 33 31 30 32 33 35 35 33 33 36 36 36
96 102 102 93 93 89 79 86 89 73 78 84 81 64 50 46 44 41 41 39 33 35 33 32 25 23 29 30 31 30 29 30 30 30 32 35 37 38 38 39 40 38 37
95 104 106 99 97 99 105 106 100 88 74 75 84 64 40 42 48 37 36 41 35 30 33 31 25 20 16 23 25 29 28 30 31 32 34 38 40 42 42 44 45 43 41
90 111 110 110 108 107 102 105 112 106 81 56 103 95 50 16 22 27 31 39 33 25 32 33 26 22 16 11 14 25 26 27 30 34 37 40 43 45 45 46 48 46 43
72 96 110 110 110 116 128 129 126 124 125 61 73 130 133 161 8 6 26 32 28 29 20 20 25 19 17 12 3 18 26 26 29 34 40 45 49 50 49 49 50 47 44
63 84 100 106 110 113 125 139 125 120 130 127 74 65 108 141 135 67 3 13 27 32 20 20 16 15 14 9 14 24 28 27 31 35 42 48 51 51 50 51 51 49 46
49 73 88 99 107 108 117 121 117 113 124 140 142 127 93 74 90 124 99 353 7 12 16 15 12 9 10 11 10 29 34 32 35 38 40 44 47 50 50 51 51 50 49
42 58 79 85 98 105 114 118 116 117 117 118 124 131 143 140 142 130 133 104 6 343 360 10 11 3 9 13 21 32 37 37 38 39 41 43 44 46 47 49 52 52 52
53 53 79 88 91 106 110 109 107 106 112 114 122 125 131 131 135 129 125 129 76 349 353 356 355 360 13 16 15 28 34 38 38 40 43 46 47 49 48 48 49 49 50
141 111 100 96 94 100 103 102 96 98 97 100 98 102 102 97 114 132 141 139 112 25 11 343 341 3 6 9 12 21 26 37 39 41 44 47 49 49 49 49 49 48 48
137 117 108 102 96 97 101 104 94 94 95 88 91 93 90 80 92 99 116 133 138 123 356 328 343 347 357 13 17 22 22 34 38 41 44 47 48 48 49 48 47 46 45
127 121 112 105 100 98 101 100 94 93 94 84 87 90 82 77 78 84 100 99 112 134 141 311 322 335 355 22 32 27 27 31 35 39 42 43 44 45 45 44 43 42 42
140 136 132 122 114 109 106 105 101 102 100 89 82 93 88 87 85 81 85 90 89 108 124 347 355 354 11 17 11 15 23 21 23 34 37 40 42 41 40 40 39 39 38
146 143 138 131 127 119 119 125 124 115 114 110 103 101 97 97 84 81 89 93 99 108 128 126 359 3 7 4 3 9 14 22 20 29 33 36 38 36 33 33 33 32 32
143 135 138 143 141 139 135 137 132 126 122 123 123 124 125 116 100 92 93 96 94 91 96 120 74 3 359 3 15 14 17 5 9 20 26 29 31 28 26 26 26 23 22
151 150 150 152 149 146 144 141 134 128 121 111 114 125 136 141 143 134 116 114 107 94 87 95 75 18 359 348 23 18 10 4 360 7 13 15 17 14 12 14 13 12 12
159 154 145 142 140 144 153 150 145 139 132 118 102 104 132 148 155 151 140 143 127 112 101 93 68 19 346 350 343 340 4 345 344 357 353 359 359 358 355 357 359 360 1
149 145 152 154 160 175 163 159 149 140 136 133 130 112 92 91 114 123 129 138 143 142 147 137 146 192 266 260 272 285 312 357 334 341 1 337 359 338 329 332 343 348 352
153 151 158 158 174 194 175 163 159 142 138 146 151 143 124 109 108 100 94 92 98 121 152 159 170 209 221 221 189 214 239 236 264 302 357 321 337 326 321 335 343 348 352
159 164 168 173 176 196 180 168 160 141 133 148 158 157 152 152 140 135 113 86 61 33 144 160 179 213 213 200 183 187 193 213 291 309 86 302 321 312 322 322 341 354 2
167 169 168 171 177 202 183 169 154 138 140 159 166 157 162 172 168 144 126 121 62 343 22 109 129 111 135 147 139 106 77 55 331 317 332 237 302 310 310 314 337 359 1
171 164 166 173 180 195 187 172 160 146 152 166 157 180 189 185 179 163 154 154 168 261 11 43 35 19 21 43 98 144 169 162 247 297 293 233 305 340 327 313 327 342 348